Blythe, CA

6:54 AM PDT on September 19, 2017 (GMT -0700)
Blythe

Weather History for KBLH - September, 2013

Change the Weather History Date:

Thursday, September 5, 2013

  Actual Average Record
Temperature  
Mean Temperature 94 °F -  
Max Temperature 109 °F 102 °F 111 °F (2010)
Min Temperature 79 °F 76 °F 64 °F (1976)
Cooling Degree Days 28    
Growing Degree Days 44 (Base 50)    
Moisture  
Dew Point 63 °F    
Average Humidity 42    
Maximum Humidity 82    
Minimum Humidity 16    
Precipitation  
Precipitation 0.00 in - - ()
Sea Level Pressure  
Sea Level Pressure 29.78 in    
Wind  
Wind Speed 3 mph (WSW)    
Max Wind Speed 9 mph    
Max Gust Speed -    
Visibility 10 miles    
Events      
Averages and records for this station are not official NWS values.
T = Trace of Precipitation, MM = Missing Value Source: NWS Daily Summary

Daily Weather History Graph

Daily Weather History Graph

Search for Another Location

Airport or City:

Trip Planner

Search our weather history database for the weather conditions in past years. The results will help you decide how hot, cold, wet, or windy it might be!

Date:

Astronomy

Sep. 05, 2013 Rise Set
Actual Time 6:15 AM PDT 6:58 PM PDT
Civil Twilight 5:50 AM PDT 7:23 PM PDT
Nautical Twilight 5:20 AM PDT 7:53 PM PDT
Astronomical Twilight 4:50 AM PDT 8:23 PM PDT
Moon 6:28 AM PDT (9/5) 6:57 PM PDT (9/5)
Length of Visible Light 13h 33m
Length of Day
12h 42m
New Moon, 0% of the Moon is Illuminated
Sep 5
New Moon
Sep 12
First Quarter
Sep 19
Full
Sep 26
Last Quarter
Oct 4
New

Hourly Weather History & Observations

Time (PDT) Temp. Heat Index Dew Point Humidity Pressure Visibility Wind Dir Wind Speed Gust Speed Precip Events Conditions
12:52 AM 82.9 °F 87.5 °F 71.1 °F 67% 29.81 in 10.0 mi West 3.5 mph - N/A   Clear
1:52 AM 82.0 °F 87.4 °F 73.0 °F 74% 29.79 in 10.0 mi NW 3.5 mph - N/A   Clear
2:52 AM 82.0 °F 86.7 °F 72.0 °F 71% 29.78 in 10.0 mi West 3.5 mph - N/A   Clear
3:52 AM 80.1 °F 83.8 °F 72.0 °F 76% 29.79 in 10.0 mi Calm Calm - N/A   Clear
4:52 AM 80.1 °F 83.8 °F 72.0 °F 76% 29.79 in 10.0 mi Calm Calm - N/A   Clear
5:52 AM 79.0 °F - 73.0 °F 82% 29.80 in 10.0 mi Calm Calm - N/A   Clear
6:52 AM 82.0 °F 85.9 °F 70.0 °F 67% 29.81 in 10.0 mi Calm Calm - N/A   Clear
7:52 AM 82.9 °F 86.5 °F 69.1 °F 63% 29.83 in 10.0 mi SW 5.8 mph - N/A   Clear
8:52 AM 89.1 °F 92.9 °F 68.0 °F 50% 29.84 in 10.0 mi SW 4.6 mph - N/A   Clear
9:52 AM 93.0 °F 95.9 °F 66.0 °F 41% 29.84 in 10.0 mi Calm Calm - N/A   Clear
10:52 AM 96.1 °F 98.8 °F 64.9 °F 36% 29.84 in 10.0 mi SSW 3.5 mph - N/A   Clear
11:52 AM 100.0 °F 103.0 °F 64.0 °F 31% 29.83 in 10.0 mi Calm Calm - N/A   Clear
12:52 PM 102.0 °F 103.9 °F 62.1 °F 27% 29.81 in 10.0 mi Calm Calm - N/A   Clear
1:52 PM 104.0 °F 104.6 °F 59.0 °F 23% 29.77 in 10.0 mi Calm Calm - N/A   Clear
2:52 PM 107.1 °F 106.7 °F 57.0 °F 19% 29.75 in 10.0 mi WSW 6.9 mph - N/A   Clear
3:52 PM 107.1 °F - 52.0 °F 16% 29.73 in 10.0 mi Variable 4.6 mph - N/A   Partly Cloudy
4:52 PM 108.0 °F - 52.0 °F 16% 29.72 in 10.0 mi WSW 6.9 mph - N/A   Partly Cloudy
5:52 PM 107.1 °F 105.4 °F 53.1 °F 17% 29.71 in 10.0 mi Variable 4.6 mph - N/A   Partly Cloudy
6:52 PM 105.1 °F 103.3 °F 54.0 °F 18% 29.70 in 10.0 mi West 6.9 mph - N/A   Partly Cloudy
7:52 PM 102.0 °F 100.6 °F 55.0 °F 21% 29.72 in 10.0 mi West 5.8 mph - N/A   Clear
8:52 PM 99.0 °F 98.6 °F 59.0 °F 26% 29.74 in 10.0 mi WSW 9.2 mph - N/A   Clear
9:52 PM 97.0 °F 96.9 °F 60.1 °F 29% 29.74 in 10.0 mi WNW 6.9 mph - N/A   Clear
10:52 PM 98.1 °F 97.2 °F 57.9 °F 26% 29.75 in 10.0 mi West 5.8 mph - N/A   Clear
11:52 PM 93.0 °F 92.0 °F 57.9 °F 31% 29.75 in 10.0 mi NW 6.9 mph - N/A   Clear